Location: Martz Observatory
(42.0083°N, 79.0667°W)
Time: 15:35:16
(UTC-04:00)

OAO 2 Rocket - Pass Details

Date: 26 May 2018
Orbit: 676 x 746 km, 35.0° (Epoch: 24 June)

Event Time Altitude Azimuth Distance (km) Brightness Sun altitude
Exits shadow 04:32:58 16° 243° (WSW) 1,782 4.8 -11.8°
Maximum altitude 04:36:29 37° 183° (S) 1,061 3.9 -11.3°
Drops below altitude 10° 04:40:59 10° 117° (ESE) 2,106 6.1 -10.7°
Sets 04:43:30 0° 109° (ESE) 3,017 7.0 -10.4°
